Regional Weather Roundup
Issued by NWS Charleston, SC

Current Version | Previous Version | Text Only | Print | Product List | Glossary Off
Versions: 1 2 3 4 5 6 7 8 9 10 11 12 13 14 15 16 17 18 19 20 21 22 23 24 25 26 27 28 29 30 31 32 33 34 35 36 37 38 39 40 41 42 43 44 45 46 47 48 49 50

000
ASUS42 KCHS 300226
RWRCHS

REGIONAL WEATHER ROUNDUP
NATIONAL WEATHER SERVICE CHARLESTON SC
1000 PM EDT SUN MAR 29 2015

NOTE: "FAIR" INDICATES FEW OR NO CLOUDS BELOW 12,000 FEET WITH NO
SIGNIFICANT WEATHER AND/OR OBSTRUCTIONS TO VISIBILITY.

NOT ALL STATIONS ARE QUALITY CONTROLLED BY THE NATIONAL
WEATHER SERVICE. USE DATA WITH CAUTION...ESPECIALLY
DEWPOINT OBSERVATIONS.

SCZ027-030-031-034>040-042>050-300300-
...SOUTHEAST SOUTH CAROLINA...

CITY           SKY/WX    TMP DP  RH WIND       PRES   REMARKS
N CHARLESTON   CLEAR     45  32  60 S3        30.35S
WATERFRONT PRK   N/A     52 N/A N/A S6          N/A
MOUNT PLEASANT MIX PCPN  39  36  87 CALM      30.35S
PINOPOLIS        N/A     48  27  43 VRB3      30.27R
MONCKS CORNER  FAIR      41  32  70 CALM      30.34S
SUMMERVILLE    FAIR      43  34  70 SE3       30.34F
BEAUFORT MCAS  CLEAR     47  37  68 S3        30.35S
BEAUFORT ARPT  FAIR      46  36  66 S5        30.34F
HILTON HEAD IS CLEAR     48  28  46 S3        30.36F
WALTERBORO     CLEAR     43  34  70 S3        30.34F
ALLENDALE      FAIR      48  32  53 S3        30.32S

...SOUTHERN MIDLANDS AND PEE DEE...

CITY           SKY/WX    TMP DP  RH WIND       PRES   REMARKS
GEORGETOWN     NOT AVBL
KINGSTREE      NOT AVBL
ORANGEBURG     CLEAR     45  24  43 S3        30.31F
BARNWELL       FAIR      46  28  49 S8        30.32S
AIKEN          FAIR      43  21  42 S5        30.33R
MANNING        FLURRIES  34  28  80 CALM      30.32F
COLUMBIA       CLEAR     46  21  37 SW5       30.30R
SUMTER         CLEAR     43  25  48 S3        30.29S
FLORENCE       CLEAR     42  24  49 S5        30.31F
MYRTLE BEACH   CLEAR     45  30  57 S6        30.36S
N MYRTLE BEACH CLEAR     44  31  60 SW6       30.34S

$$

GAZ063-065-086>088-099>101-113>116-118-119-134>141-150-300300-
...SOUTHEAST GEORGIA...

CITY           SKY/WX    TMP DP  RH WIND       PRES   REMARKS
SAVANNAH ARPT  CLEAR     45  31  58 S6        30.36S
HUNTER AAF     CLEAR     46  34  62 S2        30.33S
FORT STEWART   CLEAR     46  34  63 CALM      30.34S
STATESBORO     CLEAR     48  34  59 S7        30.34S
SYLVANIA       CLEAR     47  34  60 S3        30.34S
CLAXTON        FAIR      46  36  66 CALM      30.34F

...CSRA...CENTRAL AND FAR SOUTHEAST GEORGIA...

CITY           SKY/WX    TMP DP  RH WIND       PRES   REMARKS
THOMSON        CLEAR     45  33  63 CALM      30.33F
AUGUSTA-BUSH   CLEAR     39  26  59 S3        30.31R
AUGUSTA-DANIEL CLEAR     52  17  25 S3        30.30S
SWAINSBORO     FAIR      46  30  53 CALM      30.32R
VIDALIA        CLEAR     50  36  57 SE6       30.33R
EASTMAN        FAIR      44  35  69 CALM      30.33S
HAZLEHURST     FAIR      50  37  62 SE7       30.32R
ALMA           CLEAR     50  36  58 SE8       30.34R
WAYCROSS       CLEAR     52  40  65 SE5       30.34S
JESUP          FAIR      45  37  76 CALM      30.36S
BAXLEY         FAIR      50  36  57 SE6       30.34R
BRUNSWICK      CLEAR     43  37  81 CALM      30.37S
SAINT SIMONS   CLEAR     52  36  54 SE12      30.36S

$$

SCZ027-028-034-036>038-045-046-048>050-GAZ119-141-300300-
...LAKE AND SUPPLEMENTAL COASTAL OBSERVATIONS...

STATION/POSITION TIME  TEMP    WIND        PRES    WAVE   SWELL
                       AIR SEA DIR/SP/G            HT/PER HT/PER/DIR
                 (UTC) (F)     (DEG/KT/KT) (MB)    (FT/S) (FT/S/D)
UPR LAKE MARION  NOT AVBL
WINYAH BAY       0100   45        CALM     1026.0
LAKE MURRAY      0200   53     170/ 11/ 12 1025.1R
ACE BASIN NERRS  NOT AVBL
FORT PULASKI     0100   49 61  140/  3/  5 1028.5F
SAPELO ISLAND    0200   48     130/  5     1028.0S

$$

ANZ835-935-AMZ111-154-330-350-352-354-370-450-454-472-300300-
...C-MAN AND BUOY OBSERVATIONS...

STATION/POSITION TIME  TEMP    WIND        PRES    WAVE   SWELL
                       AIR SEA DIR/SP/G            HT/PER HT/PER/DIR
                 (UTC) (F)     (DEG/KT/KT) (MB)    (FT/S) (FT/S/D)
BUOY 41004       0150   54 68  130/  2/  4 1027.7F   3/ 9   3/ 9
BUOY 41008       0150   54 60  130/  8/ 10 1028.2R   3/10   3/ 70/10
FOLLY BEACH CMAN 0200   52     170/  8/ 10 1027.8R
CAPERS NEARSHORE NOT AVBL
FRIPP NEARSHORE  0100   53     180/  8/ 10 1027.1R


STATION/POSITION TIME  TEMP    WIND        PRES    WAVE   SWELL
                       AIR SEA DIR/SP/G            HT/PER HT/PER/DIR
                 (UTC) (F)     (DEG/KT/KT) (MB)    (FT/S) (FT/S/D)
5E ST. MARYS GA  0121      60                N/A     3/ 6   2/ 80/11
FRYING PAN BUOY  0150   49 65  190/  2/  4 1028.3F   3/ 5   2/ 60/ 5
BUOY 41025       NOT AVBL
CAPE LOOKOUT NC  0200   46     230/  1/  2 1026.7F
BUOY 41002       0150   53 68  340/ 14/ 17 1028.0R   6/ 8   5/ 10/ 8
BUOY 41010       0120   64 75   40/ 12/ 16 1026.6F
ST AUGUSTINE FL  0200   56 61   70/  9/ 10 1028.9R


$$



USA.gov is the U.S. government's official web portal to all federal, state and local government web resources and services.